THOR ABLESTAR DEB, 1522

Orbit data source: Space-Track

THOR ABLESTAR DEB, 1522 is space debris in LEO originally from a launch on Fri, 13 Aug 1965 UTC launched from the Air Force Western Test Range (AFWTR). Debris objects in space refer to the collection of defunct objects orbiting the Earth. Examples of debris include non-operational satellites, rocket bodies, and fragments generated from explosions, collisions, or faulty payload assembly.

Loading next visibility...
Identifier
1522, 1965-065L
Orbit
LEO
Country
Flag of USUS
Related business
Manufacturer
Unknown
Mission
Spacecraft
Bus & Motor
Unknown
Mass
Unknown
Launch date (UTC)
1965-08-13 (61 years ago)
Launch vehicle
Unknown
Launch site
Air Force Western Test Range (AFWTR)
Object type
Payload
Rocket body
Debris
Shape & HBR
Unknown shape, 0.4 m
Radar Cross Section
Medium (>0.1 m² and <1 m²)

Expand to show TLE details & history
Last TLE update: 8 hours ago

TLE from 8 hours ago
0 THOR ABLESTAR DEB
1  1522U 65065L   26168.41155383  .00000037  00000-0  58002-4 0  9994
2  1522  90.0656 126.4885 0068941 246.1611 236.0277 13.33857851959825
Epoch: 2026-06-17T09:52Z
TLE epoch observation values (Epoch: 2026-06-17T09:52:38.250Z)
Latitude
58.5534°
Longitude
-107.23376°
Altitude
1,171.396 km
Speed
7.259 km/s
True Right ascension
20h 26m 22s
True Declination
58° 24' 31"
Sunlit
Object was in daylight at epoch
Visualization orbit readout
Latitude
Unknown
Longitude
Unknown
Altitude
Unknown
Speed
Unknown
Apparent Right ascension
Unknown
Apparent Declination
Unknown
Sunlit
N/A
Visualization observer readout
Local Sidereal Time
04:28:50
Azimuth
Unknown
Elevation
Unknown
Doppler factor
Unknown
Orbital elements
Apogee altitude
1,181.077 km
Perigee altitude
1,077.563 km
Semi-major axis
7,507.457 km
Eccentricity
0.00689
Inclination
90.0656°
RAAN
126.4885°
Arg. of periapsis
246.1611°
True anomaly
235.3757°
Mean anomaly
236.0277°
Eccentric anomaly
235.70138°
Mean motion
3.3366 °/min
Orbital period
107.89 mins
BSTAR
0.000058002
Loading maneuver chart data...
Computing Atmospheric mass density...
Loading historical data...
Loading historical data...
Loading historical data...
Loading historical data...
Loading historical data...
Loading historical data...
Loading historical data...

Documentation

Showing up to 5 results
|